SCP
9 9 8 8 7 6 5 5 5 5 5 5 4 4 5 5 4 3 3 3 2 2 3 3 2 1 1 1 1 1 0 0 0 1 1 0 0 0 0 1 0 0 1
8 8 7 6 6 5 4 5 5 5 5 5 4 4 4 4 4 3 3 3 2 2 3 3 2 2 1 1 1 1 0 0 0 1 1 0 0 0 0 0 0 0 0
6 6 6 5 4 4 4 4 5 5 5 5 4 3 3 4 4 4 3 3 2 2 2 2 3 3 2 1 1 1 0 0 0 1 0 0 0 0 0 0 0 0 0
5 5 5 4 3 3 4 4 4 4 4 4 3 3 3 3 4 4 4 3 2 2 2 2 3 3 3 2 1 1 1 0 1 1 0 1 1 0 0 0 0 0 0
5 6 5 4 3 3 4 4 4 4 4 3 3 3 3 3 4 4 4 3 2 2 1 1 2 3 2 2 1 1 1 1 1 1 1 1 1 0 0 0 0 0 0
6 6 5 4 3 3 4 4 4 3 3 3 2 3 3 3 3 3 3 3 3 2 1 1 1 2 2 1 1 1 1 1 1 1 1 1 1 1 0 0 0 0 1
6 6 5 3 3 3 3 4 3 3 2 2 2 3 3 3 3 3 3 2 2 2 2 2 2 2 1 1 1 1 1 1 1 1 1 1 1 1 0 0 0 0 1
5 5 4 3 3 3 3 3 3 2 2 2 2 2 3 3 3 2 2 2 1 2 2 3 2 2 1 1 1 1 1 2 2 2 2 2 1 1 1 1 1 1 1
4 4 3 3 3 3 3 3 2 2 2 2 2 2 3 4 4 3 2 1 1 1 2 2 2 2 2 1 1 1 1 2 2 2 2 2 2 1 1 1 1 1 1
3 3 3 3 3 3 3 3 3 2 2 2 2 2 3 3 3 3 2 2 2 2 2 2 2 2 2 2 2 1 1 2 2 2 2 2 2 1 1 1 1 1 1
3 3 3 3 3 3 4 4 3 3 2 2 3 3 3 3 3 3 2 2 2 2 2 2 2 2 2 2 2 1 1 2 2 2 2 2 2 2 1 1 1 1 1
3 3 3 3 3 4 4 4 3 3 3 3 4 4 4 4 4 3 3 3 2 2 2 2 2 2 2 2 2 2 2 2 2 2 2 2 1 2 1 1 1 1 1
3 3 3 3 4 4 4 4 3 3 4 4 5 5 5 5 5 5 4 3 3 2 2 2 2 2 2 1 1 1 1 2 2 2 2 2 1 2 2 1 1 1 1
4 4 4 4 4 4 4 4 4 4 4 4 5 5 5 5 5 5 4 3 2 2 2 2 2 2 1 1 1 1 1 1 1 2 2 2 2 2 2 2 2 2 2
4 4 5 5 4 4 4 5 5 5 4 5 5 5 4 4 4 4 4 3 2 2 2 2 2 2 1 1 1 1 1 1 1 2 2 2 2 2 2 2 2 2 2
4 4 5 5 5 4 5 6 6 6 6 6 5 5 5 4 3 3 3 2 2 3 3 2 2 2 1 1 1 1 1 2 2 2 2 2 1 1 1 1 1 1 1
5 5 5 5 5 4 5 7 7 7 6 6 6 5 5 4 4 3 2 2 3 3 3 2 2 1 1 0 0 0 1 2 2 2 2 1 1 1 1 1 1 1 1
5 5 5 5 4 4 5 6 6 6 5 5 5 5 5 4 4 3 2 2 3 2 2 2 2 1 1 0 0 0 1 2 2 2 2 1 1 1 1 1 2 2 2
7 6 6 6 6 6 6 6 5 5 5 5 5 5 5 5 5 4 3 3 2 2 2 2 2 1 0 0 0 0 1 1 1 1 1 1 1 1 0 1 2 2 2
11 11 11 11 10 9 8 7 6 6 5 5 5 5 6 5 5 4 4 3 2 2 2 2 1 1 0 0 0 0 1 1 1 1 1 1 0 0 0 0 1 1 1
17 17 17 15 12 9 8 6 6 5 5 5 6 6 6 6 5 4 4 3 2 2 2 2 1 0 0 0 0 0 0 1 1 1 0 0 0 0 0 0 0 0 0
17 17 16 13 10 8 7 6 5 5 6 6 7 8 7 5 4 3 3 2 2 2 2 1 1 0 0 0 0 0 0 0 0 0 0 0 0 0 0 0 0 0 0
10 10 10 9 8 7 6 6 6 6 6 6 6 6 5 3 2 2 2 1 1 2 2 1 0 0 0 0 0 0 0 0 0 0 0 0 0 0 0 0 0 0 0
5 5 5 5 6 7 7 7 6 5 4 4 3 3 2 1 1 1 0 0 1 1 2 1 0 0 0 0 0 0 0 0 0 0 0 0 0 0 0 0 0 0 0
3 3 2 2 3 5 6 6 5 3 2 1 1 1 0 0 0 0 0 0 0 0 1 1 0 0 0 0 0 0 0 0 0 0 0 0 0 0 0 0 0 0 0
3 2 1 1 1 2 3 3 3 2 1 1 0 0 0 0 0 0 0 0 0 0 0 0 0 0 0 0 0 0 0 0 0 0 0 0 0 0 0 0 0 0 0
Wind_Speed
10 10 11 12 12 11 11 10 10 9 7 5 5 5 4 4 3 4 6 5 4 3 1 2 3 1 1 2 2 2 2 2 1 0 2 2 3 3 3 2 2 4 5
12 12 11 11 12 12 11 10 9 9 8 6 5 4 4 4 4 4 5 5 5 4 4 2 3 2 2 2 1 1 1 2 2 1 1 1 1 2 4 3 3 3 3
14 13 12 11 12 12 13 11 10 9 8 8 5 5 3 2 3 5 4 4 5 4 2 3 1 2 2 3 2 1 2 1 1 1 0 1 1 2 1 2 3 2 2
13 13 12 12 12 12 12 11 10 9 9 8 7 8 7 5 6 5 4 5 5 4 4 3 2 1 1 4 3 3 1 1 1 2 1 1 1 1 1 1 3 4 3
13 13 13 12 11 12 12 11 10 9 9 9 8 8 7 5 5 5 6 5 4 4 5 4 3 2 1 3 1 3 1 1 2 1 2 2 1 2 2 2 3 2 3
12 12 12 11 9 10 10 10 10 9 9 9 9 8 8 7 7 7 7 5 4 4 5 5 4 3 2 3 2 2 2 1 2 2 2 0 1 2 2 2 3 3 3
12 12 12 11 10 10 10 10 11 10 10 9 8 8 8 7 7 7 7 6 5 5 6 6 5 3 3 3 2 2 1 2 1 2 3 2 2 1 0 0 1 2 2
11 12 12 11 10 10 10 10 11 10 10 9 8 7 7 6 6 6 6 6 4 5 7 6 6 4 4 4 3 3 3 2 1 3 2 3 3 2 1 1 1 1 2
11 11 12 12 10 10 9 10 10 10 10 10 8 7 7 7 7 7 6 5 4 5 8 7 6 5 5 3 4 3 2 3 3 3 3 2 3 2 2 2 1 1 2
11 11 11 11 11 10 9 9 10 10 9 9 8 8 8 7 6 6 6 5 4 4 6 6 6 5 5 4 4 3 3 3 3 3 2 2 3 2 2 1 2 2 1
10 10 10 10 10 10 10 9 9 9 9 9 8 7 7 7 6 5 5 5 4 4 5 5 5 5 5 5 4 5 4 5 4 4 4 4 3 3 3 2 2 2 2
10 10 9 9 9 10 10 9 9 9 8 7 7 6 7 7 7 6 5 5 4 4 5 5 4 5 5 5 5 6 5 4 5 5 4 4 4 4 3 3 3 2 2
9 10 9 7 7 7 8 9 9 9 8 8 7 7 7 7 7 6 6 5 4 4 4 4 4 4 3 3 4 4 4 4 4 5 4 4 4 4 3 3 3 3 3
8 9 8 7 6 5 5 7 8 8 8 7 7 6 6 6 6 5 5 4 4 4 3 3 3 3 2 1 2 3 4 4 4 3 3 3 3 3 3 3 3 3 3
9 9 8 7 6 6 5 6 6 7 7 7 7 7 6 5 5 5 5 5 4 4 4 3 2 1 1 2 2 2 4 3 3 2 2 2 1 1 1 2 2 2 3
9 9 9 8 6 6 6 6 6 6 6 7 7 7 6 6 5 5 5 5 4 3 3 4 3 4 3 4 4 2 1 1 1 1 1 1 2 1 0 1 2 2 3
9 9 8 7 6 6 6 6 6 6 6 6 5 6 6 6 5 5 5 5 5 5 5 5 6 6 6 7 7 6 2 3 3 3 2 2 4 5 3 2 3 3 4
8 8 8 7 7 7 7 7 7 7 7 6 6 6 6 6 6 6 6 6 6 7 7 8 8 7 8 9 8 6 3 3 4 4 4 4 4 6 6 4 3 2 2
9 8 8 8 8 8 9 10 10 9 9 8 7 7 8 8 8 9 8 8 8 8 8 8 8 8 9 12 11 7 4 4 5 6 7 6 5 8 9 5 4 4 4
9 8 9 10 11 10 10 11 10 10 10 9 10 10 9 9 10 10 9 8 8 8 8 9 9 9 9 12 13 9 4 4 4 5 6 9 7 8 9 6 5 4 5
10 10 11 11 10 10 11 12 11 11 10 10 11 11 10 10 10 9 8 8 8 9 8 9 8 8 8 10 12 11 6 5 4 3 3 4 6 6 6 5 3 3 5
11 11 11 12 10 11 12 13 11 10 10 11 11 10 9 9 9 8 7 8 7 8 7 7 7 6 7 8 9 10 9 7 4 3 3 2 3 4 5 4 4 6 6
11 11 12 13 11 10 11 13 10 10 10 11 11 10 11 9 8 8 7 5 4 5 5 5 6 6 6 6 8 7 7 7 4 4 4 4 4 5 4 4 6 6 3
11 11 13 13 12 11 11 11 10 10 11 11 10 9 9 10 10 8 8 8 7 6 6 6 6 6 6 6 6 5 5 6 5 5 5 7 6 5 5 4 2 2 2
11 12 12 12 12 11 11 10 9 9 9 9 9 10 11 11 10 10 9 9 9 8 7 7 7 6 6 5 6 5 5 6 6 7 5 2 2 2 2 3 3 4 4
11 11 12 12 12 11 11 9 8 7 7 7 7 7 8 8 8 9 10 15 11 13 15 12 9 6 5 3 6 8 8 9 9 6 4 5 5 6 6 6 6 6 6
Wind_Direction
144 141 147 150 152 154 158 161 163 162 162 164 165 160 157 154 149 143 144 155 149 144 218 117 147 251 100 112 139 134 160 223 210 167 157 181 189 174 164 202 177 176 176
148 147 151 158 161 163 164 165 170 168 167 169 170 166 159 166 151 134 144 152 150 158 178 130 176 139 118 113 102 124 212 218 174 169 172 184 177 211 184 169 178 176 169
157 158 162 167 168 168 171 173 173 170 170 168 167 160 149 161 137 138 156 161 158 170 133 139 145 137 174 149 187 202 237 250 176 188 224 140 174 180 159 186 146 150 165
156 159 165 170 175 172 171 171 168 170 171 174 176 169 171 173 164 160 155 158 167 167 149 154 132 146 109 138 201 176 233 260 255 184 161 171 110 144 149 206 163 179 180
158 161 168 174 175 173 171 168 169 173 176 180 180 182 178 171 163 154 149 161 169 174 160 157 150 174 192 134 133 121 249 262 273 293 200 184 177 241 177 185 176 189 178
156 159 165 168 171 171 168 167 166 174 179 181 183 191 183 178 167 159 158 172 166 181 169 161 156 186 173 129 144 144 200 307 342 344 324 195 198 229 217 182 197 193 186
156 160 166 168 171 173 170 170 169 174 178 182 187 191 186 181 172 169 170 183 174 178 173 168 164 187 153 150 167 186 230 202 271 312 310 323 308 299 321 253 229 186 176
156 160 164 163 169 173 173 172 172 173 177 181 186 186 178 179 178 184 179 193 191 176 161 161 169 186 174 180 173 201 202 181 205 255 284 322 311 328 308 300 325 273 213
150 158 161 163 168 173 176 177 172 174 181 183 180 179 180 189 184 176 188 194 191 163 157 164 171 184 184 194 169 231 214 156 198 240 218 239 278 270 292 312 314 305 295
152 155 159 163 168 171 171 170 169 176 179 180 182 180 181 189 184 179 189 190 183 157 153 164 173 182 181 192 197 234 207 192 214 243 258 229 280 277 246 260 283 286 286
146 150 155 161 165 168 169 167 167 170 176 181 184 178 177 182 182 185 184 180 176 160 167 173 177 186 188 189 198 237 211 200 219 233 227 219 258 302 315 279 255 255 253
141 143 145 151 161 167 169 169 170 173 176 178 177 179 175 175 179 183 179 176 175 179 181 183 185 197 198 193 199 226 230 211 219 228 233 224 229 222 262 300 296 284 278
137 136 138 144 153 160 165 169 172 173 174 174 174 173 173 175 178 179 175 173 180 189 189 184 186 196 207 203 210 221 243 238 231 228 225 227 239 237 236 244 275 292 284
135 136 135 135 135 140 148 157 164 165 169 167 167 170 173 174 172 168 161 162 174 176 175 165 162 170 195 232 239 231 238 246 249 244 240 236 231 231 240 251 254 271 287
138 133 131 126 126 130 136 138 150 156 160 159 166 171 169 161 154 155 152 157 166 173 161 150 143 121 87 4 314 264 245 238 247 259 261 266 266 243 242 266 283 283 280
138 133 129 127 127 129 132 132 135 142 149 156 163 157 155 154 153 153 155 150 144 135 122 116 101 77 47 14 23 12 332 9 2 334 337 317 6 352 207 274 297 299 286
134 128 122 121 122 122 123 125 123 124 129 133 138 140 142 139 139 141 128 123 121 110 97 87 82 76 44 28 34 36 26 41 39 27 20 1 28 17 357 322 283 264 250
123 119 120 120 122 120 118 114 111 110 109 104 105 112 113 114 110 102 100 94 89 87 82 78 75 69 41 30 32 28 49 57 50 46 44 54 36 12 359 339 334 332 333
108 110 114 116 111 109 107 103 98 95 92 88 85 92 103 105 102 97 91 88 87 84 82 80 76 69 46 32 30 26 57 66 62 58 47 46 44 20 13 6 1 357 349
95 104 107 105 98 96 99 98 94 89 86 84 82 81 86 93 95 95 95 94 94 93 89 81 74 71 58 38 35 27 47 60 65 74 67 54 47 35 24 15 6 360 352
95 96 97 97 96 97 95 92 88 87 86 86 86 84 85 88 89 90 96 98 96 94 93 91 84 76 69 55 45 39 42 34 40 58 66 57 39 28 15 1 348 330 318
96 95 94 94 93 96 97 94 91 92 92 90 88 87 86 88 91 91 91 96 105 108 105 102 98 86 72 54 48 45 39 24 32 35 45 49 5 348 332 324 315 316 312
92 92 94 94 90 88 94 97 96 96 94 91 87 85 82 78 82 88 91 94 95 98 101 98 93 86 71 53 35 28 26 17 20 18 357 324 299 302 294 265 285 303 312
96 95 93 93 92 90 91 92 93 94 95 94 92 90 85 75 61 57 56 52 47 58 68 64 70 74 63 37 16 5 15 11 16 360 321 297 276 281 301 308 285 296 354
98 96 96 95 93 90 90 91 94 96 99 99 97 92 85 83 74 65 54 62 53 54 65 60 56 54 54 26 8 6 4 355 354 329 302 308 3 0 3 5 13 12 10
102 101 99 98 96 92 88 86 88 91 98 105 108 109 108 106 104 99 80 54 63 66 72 73 79 83 71 20 5 359 345 334 337 335 341 19 21 16 11 7 5 9 12